Weather Roundup
Issued by NWS

Home | Current Version | Previous Version | Text Only | Print | Product List | Glossary On
Versions: 1 2 3 4 5 6 7 8 9 10 11 12 13 14 15 16 17 18 19 20 21 22 23 24 25 26 27 28 29 30 31 32 33 34 35 36 37 38 39 40 41 42 43 44 45 46 47 48 49 50
000
NZUS93 KARX 011610
HRRWXR

CURRENT HOURLY OBSERVATIONS ACROSS
MUCH OF THE UPPER MISSISSIPPI VALLEY
NATIONAL WEATHER SERVICE LA CROSSE WI
1100 AM CDT WED OCT 01 2014


...SOUTHEAST MINNESOTA...


CITY           SKY/WX    TMP DP  RH WIND       PRES   REMARKS
ROCHESTER      LGT RAIN  50  49  96 SE13      29.84F FOG
ROCHESTER/MAYO CLOUDY    49  48  97 SE9       29.85R
WINONA         CLOUDY    52  50  93 SE8       29.86F
AUSTIN         LGT RAIN  52  48  87 SE7       29.82F
ALBERT LEA     LGT RAIN  52  52 100 SE14      29.80F
DODGE CENTER   RAIN      52  50  93 SE14      29.82S
PRESTON        LGT RAIN  50  48  93 SE10      29.85F
OWATONNA       DRIZZLE   52  50  93 SE13G18   29.81S
FARIBAULT      RAIN      52  50  93 SE6       29.82S
$$

...ELSEWHERE IN MINNESOTA...


CITY           SKY/WX    TMP DP  RH WIND       PRES   REMARKS
MINNEAPOLIS    RAIN      50  48  93 SE10      29.83S FOG
INTNL FALLS    CLOUDY    52  47  83 S9G20     29.73S
DULUTH         LGT RAIN  48  46  93 SE12      29.85S FOG
RED WING       HVY RAIN  52  48  87 SE10G16   29.83F
REDWOOD FALLS  CLOUDY    58  55  90 SE15      29.76S
MANKATO        CLOUDY    52  46  82 SE13      29.80F
WORTHINGTON    CLOUDY    61  57  88 SE9       29.77F
FAIRMONT       CLOUDY    54  48  82 SE7       29.79F
$$

...SOUTHWEST WISCONSIN...


CITY           SKY/WX    TMP DP  RH WIND       PRES   REMARKS
LA CROSSE      CLOUDY    56  49  77 SE7       29.88F
PRAIRIE DU CHI CLOUDY    56  47  72 E13G18    29.84F
BOSCOBEL       CLOUDY    59  49  69 VRB3      29.91F
LONE ROCK      CLOUDY    64  48  56 SE9       29.93F
PLATTEVILLE    PTSUNNY   59  51  75 SE9       29.92F
FORT MC COY    CLOUDY    55  47  76 E6        29.91F
CAMP DOUGLAS   PTSUNNY   57  54  88 E13       29.92F
VIROQUA        FAIR      55  48  79 SE12      29.89F
WIS DELLS      MOSUNNY   60  48  62 SE10      29.95F
$$

...ELSEWHERE IN WISCONSIN...


CITY           SKY/WX    TMP DP  RH WIND       PRES   REMARKS
MILWAUKEE      MOSUNNY   61  49  64 SE15G21   30.01F
MADISON        MOSUNNY   61  48  62 S16       29.96F
GREEN BAY      CLOUDY    57  53  86 SE8       30.01F
EAU CLAIRE     RAIN      49  47  93 E7        29.89F FOG
BLACK RVR FLS  DRIZZLE   52  51  97 E5        29.91F
MEDFORD        CLOUDY    50  46  84 SE12G17   29.94F
WAUSAU         CLOUDY    53  48  83 S13       29.96F
WIS RAPIDS     PTSUNNY   56  48  74 SE12      29.96F
MARSHFIELD     CLOUDY    53  47  79 SE13      29.94F
RICE LAKE      RAIN      48  46  93 SE13      29.90F
$$

...NORTHEAST IOWA...


CITY           SKY/WX    TMP DP  RH WIND       PRES   REMARKS
DECORAH        CLOUDY    54  50  87 SE12      29.84F
MASON CITY     CLOUDY    53  52  96 SE14      29.82F FOG
CHARLES CITY   CLOUDY    54  52  94 SE10      29.84F
OELWEIN        CLOUDY    55  50  82 SE17      29.84R
$$

...ELSEWHERE IN IOWA...


CITY           SKY/WX    TMP DP  RH WIND       PRES   REMARKS
DES MOINES     CLOUDY    65  61  87 S8        29.79F FOG
IOWA CITY      LGT RAIN  57  53  86 SE14      29.86F
FORT DODGE     CLOUDY    59  57  94 S6        29.79F
$$

...NORTHERN ILLINOIS...


CITY           SKY/WX    TMP DP  RH WIND       PRES   REMARKS
CHICAGO-OHARE  MOSUNNY   61  47  59 SE10      30.01F
CHICAGO-MIDWAY MOSUNNY   62  49  62 VRB7      30.02S
MOLINE         NOT AVBL
ROCKFORD       MOSUNNY   63  49  60 S14       29.99F
PEORIA         MOSUNNY   69  56  62 SE9       29.95S
$$

NOTE: "FAIR" INDICATES FEW OR NO CLOUDS BELOW 12,000 FEET WITH NO
SIGNIFICANT WEATHER AND/OR OBSTRUCTIONS TO VISIBILITY. WIND
SPEEDS ARE IN MILES-PER-HOUR.



USA.gov is the U.S. government's official web portal to all federal, state and local government web resources and services.